This is the latest recevied weather packets stored in our database for station/object KD0OXW. If no packets are shown the sender has not sent any weather packets the latest 10 day(s).
| Time | Temp. | Humidity | Pressure | Rain* | Wind** | Luminosity | Snow |
|---|---|---|---|---|---|---|---|
| 1777754898 | 14.44° C | 35% | 1013.4 hPa | 0 mm | - | - | - |
| 1777754598 | 13.89° C | 32% | 1013.5 hPa | 0 mm | - | - | - |
| 1777754298 | 13.89° C | 33% | 1013.6 hPa | 0 mm | - | - | - |
| 1777753998 | 13.89° C | 31% | 1013.6 hPa | 0 mm | - | - | - |
| 1777753698 | 14.44° C | 31% | 1013.7 hPa | 0 mm | - | - | - |
| 1777753398 | 14.44° C | 31% | 1013.8 hPa | 0 mm | - | - | - |
| 1777753098 | 15° C | 29% | 1013.8 hPa | 0 mm | - | - | - |
| 1777752798 | 15° C | 30% | 1013.8 hPa | 0 mm | - | - | - |
| 1777752498 | 15° C | 30% | 1014 hPa | 0 mm | - | - | - |
| 1777752198 | 15° C | 33% | 1013.9 hPa | 0 mm | - | - | - |
| 1777751898 | 15° C | 31% | 1014 hPa | 0 mm | - | - | - |
| 1777751598 | 15° C | 38% | 1014.1 hPa | 0 mm | - | - | - |
| 1777751298 | 14.44° C | 31% | 1014.3 hPa | 0 mm | - | - | - |
| 1777750999 | 14.44° C | 33% | 1014.4 hPa | 0 mm | - | - | - |
| 1777750698 | 14.44° C | 29% | 1014.5 hPa | 0 mm | - | - | - |
| 1777750398 | 14.44° C | 34% | 1014.6 hPa | 0 mm | - | - | - |
| 1777750098 | 14.44° C | 31% | 1014.7 hPa | 0 mm | - | - | - |
| 1777749798 | 13.89° C | 30% | 1014.7 hPa | 0 mm | - | - | - |
| 1777749498 | 13.89° C | 28% | 1014.9 hPa | 0 mm | - | - | - |
| 1777749199 | 14.44° C | 28% | 1015 hPa | 0 mm | - | - | - |
| 1777748898 | 14.44° C | 32% | 1015.1 hPa | 0 mm | - | - | - |
| 1777748599 | 13.89° C | 33% | 1015.1 hPa | 0 mm | - | - | - |
| 1777748298 | 13.89° C | 32% | 1015.2 hPa | 0 mm | - | - | - |
| 1777747998 | 13.33° C | 34% | 1015.3 hPa | 0 mm | - | - | - |
| 1777747699 | 13.33° C | 32% | 1015.5 hPa | 0 mm | - | - | - |
* Rain latest hour (hover to see other rain measurements)
** Current wind speed in m/s (hover to see current wind gust speed)